When you browse on this site, cookies collect data to enhance your experience and personalize the content and advertising you see.
Visit our Privacy Policy to learn more. By continuing to use the site, you agree to this use of cookies and data.
  • en France
  • Liste des pays
  • À 7 jours
  • Température de l'eau
  • Carte satellitaire
  • Carte météo
  • Widgets météo
  • user-avatar
    Se connecter

    Météo par heure à Punta Gorda

    Ce jour, 26 Avril, Vendredi

    Heure Température Précipitation Vent Pression Humidité
    00:00 +27°C° 0 mm 2 m/s 758 mmHg 86%
    01:00 +27°C° 0 mm 2 m/s 758 mmHg 87%
    02:00 +26°C° 0 mm 1 m/s 758 mmHg 87%
    03:00 +26°C° 0 mm 1 m/s 758 mmHg 88%
    04:00 +26°C° 0 mm 1 m/s 758 mmHg 87%
    05:00 +26°C° 0 mm 1 m/s 759 mmHg 85%
    06:00 +26°C° 0 mm 1 m/s 759 mmHg 83%
    07:00 +29°C° 0 mm 1 m/s 759 mmHg 70%
    08:00 +33°C° 0 mm 1 m/s 759 mmHg 57%
    09:00 +36°C° 0 mm 1 m/s 760 mmHg 45%
    10:00 +37°C° 0 mm 1 m/s 759 mmHg 43%
    11:00 +38°C° 0 mm 2 m/s 759 mmHg 41%
    12:00 +39°C° 0 mm 2 m/s 759 mmHg 39%
    13:00 +38°C° 0 mm 2 m/s 758 mmHg 43%
    14:00 +37°C° 0 mm 3 m/s 758 mmHg 47%
    15:00 +36°C° 0 mm 3 m/s 757 mmHg 51%
    16:00 +35°C° 0.2 mm 3 m/s 758 mmHg 57%
    17:00 +33°C° 0.2 mm 3 m/s 758 mmHg 62%
    18:00 +31°C° 0.2 mm 3 m/s 758 mmHg 68%
    19:00 +30°C° 0 mm 3 m/s 758 mmHg 73%
    20:00 +29°C° 0 mm 2 m/s 759 mmHg 78%
    21:00 +28°C° 0 mm 2 m/s 760 mmHg 83%
    22:00 +28°C° 0 mm 2 m/s 760 mmHg 84%
    23:00 +27°C° 0 mm 2 m/s 760 mmHg 86%

    Demain, 27 Avril, Samedi

    Heure Température Précipitation Vent Pression Humidité
    00:00 +27°C° 0 mm 1 m/s 760 mmHg 87%
    01:00 +26°C° 0.1 mm 1 m/s 760 mmHg 88%
    02:00 +26°C° 0.1 mm 1 m/s 759 mmHg 89%
    03:00 +26°C° 0.1 mm 1 m/s 759 mmHg 89%
    04:00 +26°C° 0.3 mm 1 m/s 759 mmHg 89%
    05:00 +26°C° 0.3 mm 1 m/s 760 mmHg 89%
    06:00 +26°C° 0.3 mm 1 m/s 760 mmHg 89%
    07:00 +29°C° 0.1 mm 1 m/s 760 mmHg 76%
    08:00 +30°C° 0.1 mm 0 m/s 760 mmHg 64%
    09:00 +32°C° 0.1 mm 0 m/s 760 mmHg 51%
    10:00 +35°C° 0 mm 1 m/s 760 mmHg 48%
    11:00 +37°C° 0 mm 2 m/s 760 mmHg 45%
    12:00 +38°C° 0 mm 2 m/s 759 mmHg 42%
    13:00 +37°C° 0 mm 3 m/s 758 mmHg 42%
    14:00 +37°C° 0 mm 3 m/s 758 mmHg 43%
    15:00 +36°C° 0 mm 4 m/s 757 mmHg 44%
    16:00 +35°C° 0 mm 4 m/s 757 mmHg 50%
    17:00 +33°C° 0 mm 4 m/s 757 mmHg 57%
    18:00 +31°C° 0 mm 3 m/s 757 mmHg 63%
    19:00 +29°C° 0 mm 3 m/s 758 mmHg 69%
    20:00 +28°C° 0 mm 3 m/s 758 mmHg 75%
    21:00 +27°C° 0 mm 3 m/s 759 mmHg 81%
    22:00 +27°C° 0 mm 3 m/s 759 mmHg 84%
    23:00 +26°C° 0 mm 2 m/s 759 mmHg 87%

    Après-demain, 28 Avril, Dimanche

    Heure Température Précipitation Vent Pression Humidité
    00:00 +26°C° 0 mm 2 m/s 759 mmHg 90%
    01:00 +25°C° 0 mm 1 m/s 758 mmHg 92%
    02:00 +25°C° 0 mm 1 m/s 758 mmHg 94%
    03:00 +25°C° 0 mm 1 m/s 758 mmHg 96%
    04:00 +25°C° 0 mm 1 m/s 758 mmHg 96%
    05:00 +25°C° 0 mm 1 m/s 758 mmHg 96%
    06:00 +25°C° 0 mm 1 m/s 758 mmHg 96%
    07:00 +27°C° 0 mm 1 m/s 759 mmHg 82%
    08:00 +30°C° 0 mm 1 m/s 759 mmHg 68%
    09:00 +33°C° 0 mm 1 m/s 760 mmHg 55%
    10:00 +34°C° 0 mm 1 m/s 759 mmHg 48%
    11:00 +36°C° 0 mm 2 m/s 759 mmHg 42%
    12:00 +38°C° 0 mm 2 m/s 758 mmHg 36%
    13:00 +38°C° 0 mm 3 m/s 757 mmHg 37%
    14:00 +37°C° 0 mm 4 m/s 756 mmHg 38%
    15:00 +37°C° 0 mm 5 m/s 755 mmHg 38%
    16:00 +35°C° 0 mm 5 m/s 755 mmHg 49%
    17:00 +33°C° 0 mm 5 m/s 756 mmHg 59%
    18:00 +30°C° 0 mm 5 m/s 756 mmHg 69%
    19:00 +30°C° 0 mm 5 m/s 757 mmHg 74%
    20:00 +29°C° 0 mm 5 m/s 758 mmHg 80%
    21:00 +28°C° 0 mm 4 m/s 759 mmHg 86%
    22:00 +28°C° 0.2 mm 4 m/s 759 mmHg 88%
    23:00 +27°C° 0.2 mm 3 m/s 759 mmHg 90%

    29 Avril, Lundi

    Heure Température Précipitation Vent Pression Humidité
    00:00 +27°C° 0.2 mm 3 m/s 759 mmHg 92%
    01:00 +27°C° 0.2 mm 3 m/s 758 mmHg 93%
    02:00 +27°C° 0.2 mm 2 m/s 758 mmHg 94%
    03:00 +27°C° 0.2 mm 2 m/s 758 mmHg 94%
    04:00 +27°C° 0.1 mm 2 m/s 758 mmHg 94%
    05:00 +27°C° 0.1 mm 1 m/s 758 mmHg 94%
    06:00 +27°C° 0.1 mm 1 m/s 758 mmHg 94%
    07:00 +29°C° 0.1 mm 1 m/s 759 mmHg 84%
    08:00 +31°C° 0.1 mm 1 m/s 759 mmHg 74%
    09:00 +33°C° 0.1 mm 1 m/s 760 mmHg 64%
    10:00 +34°C° 0 mm 1 m/s 759 mmHg 57%
    11:00 +37°C° 0 mm 2 m/s 759 mmHg 51%
    12:00 +38°C° 0 mm 3 m/s 758 mmHg 44%
    13:00 +38°C° 0 mm 4 m/s 757 mmHg 45%
    14:00 +38°C° 0 mm 4 m/s 757 mmHg 45%
    15:00 +37°C° 0 mm 5 m/s 756 mmHg 46%
    16:00 +36°C° 0 mm 5 m/s 756 mmHg 53%
    17:00 +34°C° 0 mm 5 m/s 757 mmHg 61%
    18:00 +32°C° 0 mm 6 m/s 757 mmHg 69%
    19:00 +30°C° 0.2 mm 5 m/s 758 mmHg 75%
    20:00 +29°C° 0.2 mm 5 m/s 759 mmHg 82%
    21:00 +28°C° 0.2 mm 5 m/s 759 mmHg 88%
    22:00 +28°C° 0.7 mm 5 m/s 759 mmHg 89%
    23:00 +27°C° 0.7 mm 4 m/s 759 mmHg 90%

    30 Avril, Mardi

    Heure Température Précipitation Vent Pression Humidité
    00:00 +27°C° 0.7 mm 4 m/s 759 mmHg 92%
    01:00 +27°C° 0.3 mm 4 m/s 759 mmHg 91%
    02:00 +27°C° 0.3 mm 4 m/s 758 mmHg 90%
    03:00 +28°C° 0.3 mm 3 m/s 758 mmHg 89%
    04:00 +28°C° 0.1 mm 3 m/s 758 mmHg 89%
    05:00 +28°C° 0.1 mm 2 m/s 759 mmHg 89%
    06:00 +28°C° 0.1 mm 2 m/s 759 mmHg 89%
    07:00 +29°C° 0.1 mm 2 m/s 759 mmHg 80%
    08:00 +31°C° 0.1 mm 2 m/s 760 mmHg 71%
    09:00 +34°C° 0.1 mm 2 m/s 760 mmHg 62%
    10:00 +35°C° 0 mm 3 m/s 759 mmHg 57%
    11:00 +36°C° 0 mm 4 m/s 759 mmHg 51%
    12:00 +37°C° 0 mm 4 m/s 758 mmHg 46%
    13:00 +37°C° 0 mm 5 m/s 758 mmHg 46%
    14:00 +36°C° 0 mm 5 m/s 757 mmHg 46%
    15:00 +36°C° 0 mm 6 m/s 756 mmHg 46%
    16:00 +35°C° 0 mm 6 m/s 757 mmHg 54%
    17:00 +33°C° 0 mm 6 m/s 757 mmHg 62%
    18:00 +30°C° 0 mm 6 m/s 758 mmHg 70%
    19:00 +29°C° 0.2 mm 5 m/s 759 mmHg 76%
    20:00 +29°C° 0.2 mm 5 m/s 759 mmHg 83%
    21:00 +28°C° 0.2 mm 5 m/s 760 mmHg 89%
    22:00 +27°C° 0.6 mm 5 m/s 760 mmHg 90%
    23:00 +27°C° 0.6 mm 4 m/s 759 mmHg 91%

    1 Mai, Mercredi

    Heure Température Précipitation Vent Pression Humidité
    00:00 +27°C° 0.6 mm 4 m/s 759 mmHg 92%
    01:00 +27°C° 0.4 mm 4 m/s 759 mmHg 92%
    02:00 +27°C° 0.4 mm 3 m/s 759 mmHg 92%
    03:00 +27°C° 0.4 mm 3 m/s 758 mmHg 92%
    04:00 +27°C° 0.2 mm 3 m/s 759 mmHg 90%
    05:00 +27°C° 0.2 mm 2 m/s 759 mmHg 89%
    06:00 +27°C° 0.2 mm 2 m/s 759 mmHg 87%
    07:00 +29°C° 0.2 mm 2 m/s 760 mmHg 78%
    08:00 +31°C° 0.2 mm 2 m/s 760 mmHg 69%
    09:00 +34°C° 0.2 mm 3 m/s 760 mmHg 60%
    10:00 +35°C° 0 mm 3 m/s 760 mmHg 55%
    11:00 +36°C° 0 mm 4 m/s 759 mmHg 50%
    12:00 +37°C° 0 mm 4 m/s 758 mmHg 46%
    13:00 +37°C° 0 mm 5 m/s 758 mmHg 45%
    14:00 +36°C° 0 mm 5 m/s 757 mmHg 45%
    15:00 +36°C° 0 mm 5 m/s 757 mmHg 45%
    16:00 +35°C° 0 mm 6 m/s 757 mmHg 53%
    17:00 +33°C° 0 mm 6 m/s 757 mmHg 61%
    18:00 +32°C° 0 mm 6 m/s 758 mmHg 69%
    19:00 +30°C° 0.2 mm 6 m/s 758 mmHg 75%
    20:00 +29°C° 0.2 mm 5 m/s 759 mmHg 81%
    21:00 +28°C° 0.2 mm 5 m/s 760 mmHg 87%
    22:00 +28°C° 0.9 mm 5 m/s 759 mmHg 87%
    23:00 +28°C° 0.9 mm 5 m/s 759 mmHg 88%
    Voir plus